Погода в Блантайре

Малави     15°48′09″S   35°00′55″E
темп.,
°C
ветер,
м/с
пор.,
м/с
влажн.,
%
обл.,
%
осадки,
мм/ч
давл.,
гПа
погр.,
м
23 апреля, пт
пт2323:00+17юв379161 0.0 1019265
02:00+16юв359242 0.0 1018193
05:00+15юв23930 0.0 101765
08:00+20ю14570 0.0 1018451
11:00+25ююв23370 0.0 10161214
14:00+25юв22400 0.0 10131561
17:00+21юв35620 0.0 1015410
20:00+19вюв25720 0.0 1016158
24 апреля, сб
сб2423:00+17юв23795 0.0 101761
02:00+17вюв22805 0.0 101536
05:00+16вюв11840 0.0 101620
08:00+21в12603 0.0 1017386
11:00+26ююв12380 0.0 10161577
14:00+28ю12374 0.0 10121962
17:00+23вюв23591 0.0 1013259
20:00+20вюв36685 0.0 1015188
25 апреля, вс
вс2523:00+18в23765 0.0 101667
02:00+17вюв22865 0.0 101657
05:00+17вюв22805 0.0 101623
08:00+22всв01565 0.0 1018330
11:00+28с02390 0.0 10161547
14:00+29ю223423 0.0 10122253
17:00+23юв3653100 0.0 1013359
20:00+21вюв36566 0.0 1016177
26 апреля, пн
пн2623:00+19в236499 0.0 101572
02:00+18в237688 0.0 101560
05:00+17в228193 0.0 101634
08:00+22всв12695 0.0 1017378
11:00+28ю03385 0.0 10151572
14:00+29ююз223110 0.0 10112147
17:00+24юв35566 0.0 1012389
20:00+21вюв36665 0.0 1014239
27 апреля, вт
вт2723:00+20вюв23815 0.0 101577
02:00+18в22905 0.0 101465
05:00+17в22935 0.0 101536
08:00+22всв12670 0.0 1015399
11:00+28ююз02360 0.0 10131583
14:00+29ююз22310 0.0 10112169
17:00+24юв36515 0.0 1012456
20:00+21вюв37645 0.0 1014260